Tracking 29892 objects as of 21-Nov-2024
HD Live streaming from Space Station
objects crossing your sky now

BREEZE-M DEB

Track BREEZE-M DEB now!
10-day predictions


NORAD ID: 38884
Int'l Code: 2012-044R
Perigee: 271.1 km
Apogee: 3,594.6 km
Inclination: 50.0 °
Period: 125.5 minutes
Semi major axis: 8303 km
RCS: 0.2656 m2 (medium)
Launch date: August 6, 2012
Source: Commonwealth of Independent States (former USSR) (CIS)
Launch site: TYURATAM MISSILE AND SPACE COMPLEX (TTMTR)

Note: This is SATELLITE DEBRIS
Your satellite tracking list
Your tracking list is empty




NASA's NSSDC Master Catalog

Two Line Element Set (TLE):
1 38884U 12044R   24325.52351262  .00024291  44626-5  59009-3 0  9995
2 38884  49.9941  20.7173 2001197 135.7600 242.1871 11.47321114476086
Source of the keplerian elements: AFSPC